Northfield, Minnesota, United States (55057)
Lat: 44.46N, Lon: 93.16W
Wx Zone: MNZ077
Local Info
Past Weather Observations for Today

NOTE: This archive is for the closest National Weather Service station to Northfield. Information may differ from the station used for current weather conditions.

Click here for Long-term Archive

Time Weather Temperature Dewpoint Humidity Pressure Winds Precip Visibility
17:33
Clear
84°F / 29°C 72°F / 22°C 66% 29.83 in
(1010 mb)
Calm - 10SM
17:12
Partly Cloudy
84°F / 29°C 72°F / 22°C 66% 29.83 in
(1010 mb)
Calm - 10SM
16:53
Partly Cloudy
84°F / 29°C 72°F / 22°C 66% 29.83 in
(1010 mb)
Calm - 10SM
16:33
Overcast
84°F / 29°C 70°F / 21°C 62% 29.86 in
(1011 mb)
Calm - 10SM
16:12
Mostly Cloudy
84°F / 29°C 70°F / 21°C 62% 29.86 in
(1011 mb)
SSE 4.6 mph
(SSE 7 kph)
- 10SM
15:53
Mostly Cloudy
84°F / 29°C 70°F / 21°C 62% 29.86 in
(1011 mb)
Calm - 10SM
15:33
Mostly Cloudy
84°F / 29°C 72°F / 22°C 66% 29.86 in
(1011 mb)
SSE 3.5 mph
(SSE 6 kph)
- 10SM
15:13
Partly Cloudy
84°F / 29°C 70°F / 21°C 62% 29.86 in
(1011 mb)
SSE 3.5 mph
(SSE 6 kph)
- 10SM
14:52
Partly Cloudy
84°F / 29°C 70°F / 21°C 62% 29.89 in
(1012 mb)
SE 3.5 mph
(SE 6 kph)
- 10SM
14:33
Partly Cloudy
84°F / 29°C 70°F / 21°C 62% 29.89 in
(1012 mb)
SSE 3.5 mph
(SSE 6 kph)
- 10SM
14:13
Mostly Cloudy
Thunder Storms
84°F / 29°C 70°F / 21°C 62% 29.89 in
(1012 mb)
E 4.6 mph
(E 7 kph)
- 10SM
13:53
Overcast
82°F / 28°C 70°F / 21°C 66% 29.89 in
(1012 mb)
ESE 3.5 mph
(ESE 6 kph)
- 10SM
13:33
Overcast
82°F / 28°C 70°F / 21°C 66% 29.89 in
(1012 mb)
SE 3.5 mph
(SE 6 kph)
- 10SM
13:13
Overcast
82°F / 28°C 70°F / 21°C 66% 29.89 in
(1012 mb)
SSE 4.6 mph
(SSE 7 kph)
- 10SM
12:53
Overcast
Thunder Storms
82°F / 28°C 70°F / 21°C 66% 29.89 in
(1012 mb)
SSE 5.8 mph
(SSE 9 kph)
- 10SM
12:33
Overcast
82°F / 28°C 70°F / 21°C 66% 29.89 in
(1012 mb)
S 5.8 mph
(S 9 kph)
- 10SM
12:13
Overcast
81°F / 27°C 70°F / 21°C 70% 29.89 in
(1012 mb)
SSE 3.5 mph
(SSE 6 kph)
- 10SM
11:53
Overcast
Thunder Storms
81°F / 27°C 70°F / 21°C 70% 29.89 in
(1012 mb)
SSE 5.8 mph
(SSE 9 kph)
- 10SM
11:32
Overcast
Thunder Storms
79°F / 26°C 68°F / 20°C 70% 29.89 in
(1012 mb)
S 3.5 mph
(S 6 kph)
- 10SM
11:13
Overcast
79°F / 26°C 68°F / 20°C 70% 29.92 in
(1013 mb)
SSE 5.8 mph
(SSE 9 kph)
- 10SM
10:53
Overcast
81°F / 27°C 68°F / 20°C 66% 29.92 in
(1013 mb)
S 9.2 mph
(S 15 kph)
- 10SM
10:33
Partly Cloudy
79°F / 26°C 70°F / 21°C 74% 29.92 in
(1013 mb)
SE 5.8 mph
(SE 9 kph)
- 10SM
10:13
Partly Cloudy
79°F / 26°C 70°F / 21°C 74% 29.92 in
(1013 mb)
SE 6.9 mph
(SE 11 kph)
- 10SM
09:52
Partly Cloudy
77°F / 25°C 70°F / 21°C 79% 29.92 in
(1013 mb)
SE 4.6 mph
(SE 7 kph)
- 10SM
09:33
Clear
75°F / 24°C 68°F / 20°C 78% 29.92 in
(1013 mb)
ESE 4.6 mph
(ESE 7 kph)
- 10SM
09:13
Partly Cloudy
73°F / 23°C 68°F / 20°C 83% 29.92 in
(1013 mb)
E 8.1 mph
(E 13 kph)
- 10SM
08:52
Overcast
72°F / 22°C 66°F / 19°C 83% 29.92 in
(1013 mb)
E 6.9 mph
(E 11 kph)
- 10SM
08:33
Overcast
72°F / 22°C 66°F / 19°C 83% 29.92 in
(1013 mb)
E 5.8 mph
(E 9 kph)
- 10SM
08:13
Overcast
Thunder Storms
70°F / 21°C 66°F / 19°C 88% 29.92 in
(1013 mb)
E 5.8 mph
(E 9 kph)
- 10SM
07:52
Overcast
72°F / 22°C 66°F / 19°C 83% 29.95 in
(1014 mb)
E 3.5 mph
(E 6 kph)
- 10SM
07:33
Overcast
72°F / 22°C 66°F / 19°C 83% 29.92 in
(1013 mb)
Calm - 10SM
07:13
Overcast
70°F / 21°C 66°F / 19°C 88% 29.92 in
(1013 mb)
Calm - 10SM
06:53
Overcast
Thunder Storms
72°F / 22°C 64°F / 18°C 78% 29.92 in
(1013 mb)
Calm - 10SM
06:33
Overcast
Thunder Storms
72°F / 22°C 64°F / 18°C 78% 29.92 in
(1013 mb)
SSE 8.1 mph
(SSE 13 kph)
- 10SM
06:13
Overcast
Thunder Storms
72°F / 22°C 64°F / 18°C 78% 29.92 in
(1013 mb)
SSE 11.5 mph
(SSE 19 kph)
- 10SM
05:52
Mostly Cloudy
72°F / 22°C 66°F / 19°C 83% 29.89 in
(1012 mb)
SSE 12.7 mph
(SSE 20 kph)
0.01 in
(0.25 mm)
10SM
05:33
Mostly Cloudy
Thunder Storms
70°F / 21°C 66°F / 19°C 88% 29.92 in
(1013 mb)
SSE 9.2 mph
(SSE 15 kph)
0.01 in
(0.25 mm)
10SM
05:13
Partly Cloudy
70°F / 21°C 66°F / 19°C 88% 29.92 in
(1013 mb)
S 4.6 mph
(S 7 kph)
0.01 in
(0.25 mm)
7SM
04:53
Partly Cloudy
Thunder Storms
70°F / 21°C 66°F / 19°C 88% 29.92 in
(1013 mb)
Calm 0.01 in
(0.25 mm)
10SM
04:32
Partly Cloudy
70°F / 21°C 66°F / 19°C 88% 29.92 in
(1013 mb)
SW 4.6 mph
(SW 7 kph)
0.01 in
(0.25 mm)
10SM
04:13
Overcast
70°F / 21°C 66°F / 19°C 88% 29.92 in
(1013 mb)
SW 5.8 mph
(SW 9 kph)
- 10SM
03:53
Overcast
Thunder Storms
72°F / 22°C 66°F / 19°C 83% 29.92 in
(1013 mb)
S 11.5 mph
(S 19 kph)
0.06 in
(1.52 mm)
7SM
03:33
Overcast
Thunder Storms
72°F / 22°C 68°F / 20°C 88% 29.95 in
(1014 mb)
SSW 5.8 mph
(SSW 9 kph)
0.05 in
(1.27 mm)
7SM
03:12
Overcast
Thunder Storms
73°F / 23°C 70°F / 21°C 89% 29.98 in
(1015 mb)
W 10.4 mph
(W 17 kph)
0.02 in
(0.51 mm)
7SM
02:53
Overcast
Light Rain
73°F / 23°C 70°F / 21°C 89% 29.95 in
(1014 mb)
SSW 5.8 mph
(SSW 9 kph)
- 7SM
02:33
Partly Cloudy
73°F / 23°C 70°F / 21°C 89% 29.95 in
(1014 mb)
SW 3.5 mph
(SW 6 kph)
- 7SM
02:12
Partly Cloudy
73°F / 23°C 70°F / 21°C 89% 29.95 in
(1014 mb)
SW 3.5 mph
(SW 6 kph)
- 7SM
01:53
Partly Cloudy
75°F / 24°C 70°F / 21°C 83% 29.92 in
(1013 mb)
Calm - 10SM
01:33
Partly Cloudy
Thunder Storms
73°F / 23°C 70°F / 21°C 89% 29.92 in
(1013 mb)
Calm - 10SM
01:12
Partly Cloudy
75°F / 24°C 70°F / 21°C 83% 29.92 in
(1013 mb)
Calm - 10SM
00:53
Partly Cloudy
75°F / 24°C 72°F / 22°C 89% 29.92 in
(1013 mb)
Calm - 10SM
00:32
Clear
73°F / 23°C 72°F / 22°C 94% 29.92 in
(1013 mb)
Calm - 10SM
00:13
Clear
73°F / 23°C 72°F / 22°C 94% 29.92 in
(1013 mb)
S 4.6 mph
(S 7 kph)
- 10SM
Time Weather Temperature Dewpoint Humidity Pressure Winds Precip Visibility


Weather for websites

WeatherForYou.com, LLC is not responsible for any damages or problems caused by this service. Current weather conditions are obtained from the closest station including government and personal stations which may have varying degrees of accuracy. Weather forecasts are derived from the NOAA NDFD. Like all things, this site belongs to Jesus Christ... He just trusts us to maintain it. If you have any questions or comments email webmaster@weatherforyou.com

Copyright © 2015, WeatherForYou.com LLC. All rights reserved.